Weather History for Clines Corner, NM

Change the Weather History Date:

Sunday, February 10, 2013

  Actual Average (KSAF) Record (KSAF)
Temperature  
Mean Temperature 28 °F -  
Max Temperature 36 °F 0 °F 64 °F (1999)
Min Temperature 19 °F - 3 °F (2011)
Degree Days  
Heating Degree Days 38    
Moisture  
Dew Point 9 °F    
Average Humidity 51    
Maximum Humidity 71    
Minimum Humidity 31    
Precipitation  
Precipitation 0.00 in - - ()
Sea Level Pressure  
Sea Level Pressure 29.89 in    
Wind  
Wind Speed 16 mph (West)    
Max Wind Speed 26 mph    
Max Gust Speed 40 mph    
Visibility 10 miles    
Events      
Averages and records for this station are not official NWS values.
T = Trace of Precipitation, MM = Missing Value Source: NWS Daily Summary

Daily Weather History Graph

Daily Weather History Graph

Search for Another Location

Airport:

Trip Planner

Search our weather history database for the weather conditions in past years. The results will help you decide how hot, cold, wet, or windy it might be!

Date:

Astronomy

Feb. 10, 2013 Rise Set
Actual Time 6:53 AM MST 5:40 PM MST
Civil Twilight 6:27 AM MST 6:06 PM MST
Nautical Twilight 5:57 AM MST 6:36 PM MST
Astronomical Twilight 5:27 AM MST 7:06 PM MST
Moon 6:47 AM MST (2/10) 6:30 PM MST (2/10)
Length of Visible Light 11h 39m
Length of Day
10h 47m
New Moon, 0% of the Moon is Illuminated
Feb 10
New Moon
Feb 17
First Quarter
Feb 25
Full
Mar 4
Last Quarter
Mar 11
New

Hourly Weather History & Observations

Time (MST) Temp. Windchill Dew Point Humidity Pressure Visibility Wind Dir Wind Speed Gust Speed Precip Events Conditions
12:53 AM 21.9 °F 6.2 °F 12.0 °F 66% 29.78 in 10.0 mi West 21.9 mph - N/A   Overcast
1:53 AM 21.9 °F 7.3 °F 12.9 °F 68% 29.81 in 10.0 mi West 18.4 mph - N/A   Overcast
2:53 AM 21.9 °F 8.7 °F 12.9 °F 68% 29.83 in 10.0 mi West 15.0 mph - N/A   Overcast
3:53 AM 21.0 °F 7.1 °F 12.0 °F 68% 29.82 in 10.0 mi West 16.1 mph - N/A   Overcast
4:53 AM 21.9 °F 8.7 °F 12.9 °F 68% 29.83 in 10.0 mi West 15.0 mph - N/A   Overcast
5:53 AM 21.0 °F 10.6 °F 12.9 °F 71% 29.86 in 10.0 mi West 9.2 mph - N/A   Overcast
6:53 AM 19.9 °F 8.6 °F 12.0 °F 71% 29.89 in 10.0 mi West 10.4 mph - N/A   Overcast
7:53 AM 23.0 °F 10.6 °F 12.9 °F 65% 29.91 in 10.0 mi West 13.8 mph - N/A   Partly Cloudy
8:53 AM 26.1 °F 13.1 °F 12.9 °F 58% 29.91 in 10.0 mi West 17.3 mph - N/A   Clear
9:53 AM 28.9 °F 18.2 °F 12.0 °F 49% 29.91 in 10.0 mi West 13.8 mph 26.5 mph N/A   Partly Cloudy
10:53 AM 33.1 °F 21.9 °F 10.0 °F 38% 29.89 in 10.0 mi West 18.4 mph 28.8 mph N/A   Partly Cloudy
11:53 AM 34.0 °F 21.5 °F 10.0 °F 37% 29.87 in 10.0 mi West 24.2 mph 32.2 mph N/A   Partly Cloudy
12:53 PM 35.1 °F 23.5 °F 10.0 °F 35% 29.85 in 10.0 mi West 21.9 mph 27.6 mph N/A   Partly Cloudy
1:53 PM 36.0 °F 23.7 °F 9.0 °F 33% 29.84 in 10.0 mi WNW 26.5 mph 40.3 mph N/A   Clear
2:53 PM 36.0 °F 23.9 °F 8.1 °F 31% 29.84 in 10.0 mi WNW 25.3 mph 31.1 mph N/A   Clear
3:53 PM 34.0 °F 23.0 °F 7.0 °F 32% 29.87 in 10.0 mi West 18.4 mph 27.6 mph N/A   Clear
4:53 PM 34.0 °F 23.4 °F 6.1 °F 31% 29.89 in 10.0 mi West 17.3 mph - N/A   Clear
5:53 PM 28.0 °F 17.0 °F 5.0 °F 38% 29.93 in 10.0 mi West 13.8 mph - N/A   Clear
6:53 PM 23.0 °F 12.4 °F 5.0 °F 46% 29.99 in 10.0 mi West 10.4 mph - N/A   Clear
7:53 PM 23.0 °F - 5.0 °F 46% 29.98 in 10.0 mi North - - N/A   Clear
8:53 PM 21.9 °F 14.5 °F 6.1 °F 51% 29.99 in 10.0 mi West 5.8 mph - N/A   Clear
9:53 PM 23.0 °F - 7.0 °F 50% 29.97 in 10.0 mi Calm Calm - N/A   Clear
10:53 PM 25.0 °F 20.7 °F 7.0 °F 46% 29.95 in 10.0 mi ESE 3.5 mph - N/A   Clear
11:53 PM 23.0 °F 14.7 °F 7.0 °F 50% 29.95 in 10.0 mi SSE 6.9 mph - N/A   Clear